| time (UTC) | temp F | wind direction | speed MPH | gust MPH | rain 1hr in | rain 24hr in | rain mn in | humidity % | barometer mb |
| 20260504060107 | 42 | 231 | 2.0 | 18.0 | 0.00 | 0.00 | 0.00 | 87 | 1008.2 |
| 20260504050558 | 41 | 203 | 2.0 | 9.0 | 0.00 | 0.00 | 0.00 | 87 | 1008.9 |
| 20260504050123 | 41 | 261 | 3.0 | 13.0 | 0.00 | 0.00 | 0.00 | 87 | 1008.9 |
| 20260504045558 | 41 | 286 | 3.0 | 13.0 | 0.00 | 0.00 | 0.00 | 87 | 1009.0 |
| 20260504045058 | 41 | 291 | 3.0 | 8.0 | 0.00 | 0.00 | 0.00 | 87 | 1008.8 |
| 20260504044558 | 41 | 298 | 1.0 | 5.0 | 0.00 | 0.00 | 0.00 | 87 | 1008.8 |
| 20260504044100 | 41 | 37 | 1.0 | 7.0 | 0.00 | 0.00 | 0.00 | 87 | 1008.8 |
| 20260504043602 | 41 | 24 | 2.0 | 10.0 | 0.00 | 0.00 | 0.00 | 87 | 1008.8 |
| 20260504043110 | 41 | 303 | 3.0 | 10.0 | 0.00 | 0.00 | 0.00 | 87 | 1008.8 |
| 20260504042558 | 40 | 206 | 3.0 | 7.0 | 0.00 | 0.00 | 0.00 | 87 | 1008.7 |
| 20260504042057 | 40 | 240 | 1.0 | 10.0 | 0.00 | 0.00 | 0.00 | 87 | 1008.7 |
| 20260504041559 | 40 | 144 | 1.0 | 10.0 | 0.00 | 0.00 | 0.00 | 87 | 1008.6 |
| 20260504041102 | 40 | 232 | 2.0 | 8.0 | 0.00 | 0.00 | 0.00 | 87 | 1008.7 |
| 20260504040558 | 40 | 5 | 1.0 | 8.0 | 0.00 | 0.00 | 0.00 | 87 | 1008.8 |
| 20260504040113 | 40 | 254 | 2.0 | 8.0 | 0.00 | 0.00 | 0.00 | 87 | 1008.7 |
| 20260504035558 | 40 | 309 | 2.0 | 8.0 | 0.00 | 0.00 | 0.00 | 87 | 1008.7 |
| 20260504035059 | 40 | 199 | 2.0 | 6.0 | 0.00 | 0.00 | 0.00 | 86 | 1008.7 |
| 20260504034614 | 40 | 257 | 1.0 | 6.0 | 0.00 | 0.00 | 0.00 | 86 | 1008.8 |
| 20260504034058 | 40 | 213 | 1.0 | 7.0 | 0.00 | 0.00 | 0.00 | 86 | 1008.8 |
| 20260504033558 | 40 | 209 | 2.0 | 7.0 | 0.00 | 0.00 | 0.00 | 86 | 1008.9 |
| 20260504033101 | 39 | 234 | 2.0 | 7.0 | 0.00 | 0.00 | 0.00 | 86 | 1009.0 |
| 20260504032558 | 39 | 193 | 2.0 | 7.0 | 0.00 | 0.00 | 0.00 | 86 | 1009.0 |
| 20260504032058 | 39 | 290 | 3.0 | 13.0 | 0.00 | 0.00 | 0.00 | 86 | 1009.2 |
| 20260504031611 | 39 | 273 | 4.0 | 13.0 | 0.00 | 0.00 | 0.00 | 85 | 1009.3 |
| 20260504031057 | 39 | 188 | 4.0 | 11.0 | 0.00 | 0.00 | 0.00 | 85 | 1009.2 |
| 20260504030602 | 39 | 281 | 3.0 | 11.0 | 0.00 | 0.00 | 0.00 | 85 | 1009.4 |
| 20260504030114 | 39 | 268 | 3.0 | 7.0 | 0.00 | 0.00 | 0.00 | 85 | 1009.4 |
| 20260504025558 | 40 | 278 | 2.0 | 9.0 | 0.00 | 0.00 | 0.00 | 85 | 1009.4 |
| 20260504025059 | 40 | 267 | 2.0 | 9.0 | 0.00 | 0.00 | 0.00 | 85 | 1009.4 |
| 20260504024556 | 40 | 255 | 3.0 | 8.0 | 0.00 | 0.00 | 0.00 | 85 | 1009.4 |
| 20260504024058 | 40 | 239 | 1.0 | 7.0 | 0.00 | 0.00 | 0.00 | 85 | 1009.4 |
| 20260504023558 | 40 | 0 | 1.0 | 7.0 | 0.00 | 0.00 | 0.00 | 84 | 1009.5 |
| 20260504023058 | 40 | 234 | 1.0 | 4.0 | 0.00 | 0.00 | 0.00 | 84 | 1009.5 |
| 20260504022558 | 40 | 308 | 2.0 | 5.0 | 0.00 | 0.00 | 0.00 | 84 | 1009.5 |
| 20260504022057 | 40 | 246 | 1.0 | 6.0 | 0.00 | 0.00 | 0.00 | 83 | 1009.6 |
| 20260504021606 | 40 | 248 | 2.0 | 6.0 | 0.00 | 0.00 | 0.00 | 83 | 1009.7 |
| 20260504021057 | 40 | 250 | 0.0 | 3.0 | 0.00 | 0.00 | 0.00 | 83 | 1009.8 |
| 20260504020559 | 40 | 0 | 1.0 | 3.0 | 0.00 | 0.00 | 0.00 | 82 | 1009.7 |
| 20260504020057 | 40 | 0 | 0.0 | 5.0 | 0.00 | 0.00 | 0.00 | 81 | 1009.7 |
| 20260504015558 | 40 | 208 | 0.0 | 5.0 | 0.00 | 0.00 | 0.00 | 81 | 1009.7 |
| 20260504015059 | 40 | 208 | 2.0 | 5.0 | 0.00 | 0.00 | 0.00 | 79 | 1009.8 |
| 20260504014600 | 40 | 282 | 1.0 | 7.0 | 0.00 | 0.00 | 0.00 | 78 | 1009.7 |
| 20260504014101 | 40 | 267 | 2.0 | 7.0 | 0.00 | 0.00 | 0.00 | 77 | 1009.8 |
| 20260504013558 | 41 | 283 | 1.0 | 12.0 | 0.00 | 0.00 | 0.00 | 76 | 1009.8 |
| 20260504013058 | 41 | 242 | 3.0 | 12.0 | 0.00 | 0.00 | 0.00 | 73 | 1009.9 |
| 20260504012602 | 42 | 342 | 1.0 | 14.0 | 0.00 | 0.00 | 0.00 | 72 | 1009.9 |
| 20260504012101 | 42 | 0 | 2.0 | 14.0 | 0.00 | 0.00 | 0.00 | 70 | 1009.9 |
| 20260504011600 | 42 | 306 | 6.0 | 12.0 | 0.00 | 0.00 | 0.00 | 68 | 1009.9 |
| 20260504011058 | 42 | 267 | 4.0 | 18.0 | 0.00 | 0.00 | 0.00 | 67 | 1009.9 |
| 20260504010558 | 42 | 109 | 3.0 | 18.0 | 0.00 | 0.00 | 0.00 | 65 | 1009.9 |
| 20260504010059 | 43 | 284 | 5.0 | 18.0 | 0.00 | 0.00 | 0.00 | 64 | 1009.6 |
| 20260504005558 | 43 | 288 | 2.0 | 11.0 | 0.00 | 0.00 | 0.00 | 63 | 1009.6 |
| 20260504005058 | 43 | 321 | 5.0 | 11.0 | 0.00 | 0.00 | 0.00 | 63 | 1009.5 |
| 20260504004609 | 43 | 276 | 4.0 | 11.0 | 0.00 | 0.00 | 0.00 | 62 | 1009.7 |
| 20260504004058 | 43 | 248 | 3.0 | 16.0 | 0.00 | 0.00 | 0.00 | 61 | 1009.7 |
| 20260504003557 | 44 | 280 | 7.0 | 16.0 | 0.00 | 0.00 | 0.00 | 59 | 1009.7 |
| 20260504003059 | 44 | 254 | 3.0 | 15.0 | 0.00 | 0.00 | 0.00 | 55 | 1009.7 |
| 20260504002558 | 44 | 231 | 3.0 | 12.0 | 0.00 | 0.00 | 0.00 | 53 | 1009.6 |
| 20260504002058 | 44 | 257 | 3.0 | 12.0 | 0.00 | 0.00 | 0.00 | 50 | 1009.5 |
| 20260504001601 | 44 | 270 | 6.0 | 13.0 | 0.00 | 0.00 | 0.00 | 49 | 1009.5 |
| 20260504001058 | 44 | 311 | 5.0 | 13.0 | 0.00 | 0.00 | 0.00 | 49 | 1009.3 |
| 20260504000558 | 44 | 223 | 3.0 | 8.0 | 0.00 | 0.00 | 0.00 | 47 | 1009.3 |
| 20260504000136 | 45 | 226 | 2.0 | 7.0 | 0.00 | 0.00 | 0.00 | 46 | 1009.3 |
| 20260503235558 | 45 | 286 | 3.0 | 7.0 | 0.00 | 0.00 | 0.00 | 45 | 1009.3 |
| 20260503235058 | 45 | 251 | 1.0 | 7.0 | 0.00 | 0.00 | 0.00 | 45 | 1009.2 |
| 20260503234556 | 45 | 0 | 3.0 | 7.0 | 0.00 | 0.00 | 0.00 | 44 | 1009.2 |
| 20260503234058 | 45 | 249 | 2.0 | 10.0 | 0.00 | 0.00 | 0.00 | 44 | 1009.2 |
| 20260503233558 | 45 | 146 | 4.0 | 10.0 | 0.00 | 0.00 | 0.00 | 44 | 1009.1 |
| 20260503233055 | 45 | 348 | 3.0 | 11.0 | 0.00 | 0.00 | 0.00 | 44 | 1009.2 |
| 20260503232557 | 45 | 293 | 2.0 | 13.0 | 0.00 | 0.00 | 0.00 | 44 | 1009.1 |
| 20260503232057 | 45 | 291 | 3.0 | 13.0 | 0.00 | 0.00 | 0.00 | 44 | 1009.0 |
| 20260503231559 | 45 | 300 | 5.0 | 13.0 | 0.00 | 0.00 | 0.00 | 43 | 1009.0 |
| 20260503231058 | 45 | 275 | 5.0 | 16.0 | 0.00 | 0.00 | 0.00 | 44 | 1009.1 |
| 20260503230558 | 45 | 288 | 7.0 | 16.0 | 0.00 | 0.00 | 0.00 | 43 | 1009.1 |
| 20260503230059 | 45 | 360 | 6.0 | 16.0 | 0.00 | 0.00 | 0.00 | 42 | 1009.2 |
| 20260503225558 | 46 | 243 | 5.0 | 18.0 | 0.00 | 0.00 | 0.00 | 42 | 1009.2 |
| 20260503225058 | 46 | 242 | 5.0 | 18.0 | 0.00 | 0.00 | 0.00 | 42 | 1009.1 |
| 20260503224559 | 47 | 301 | 8.0 | 18.0 | 0.00 | 0.00 | 0.00 | 41 | 1009.0 |
| 20260503224058 | 47 | 293 | 5.0 | 19.0 | 0.00 | 0.00 | 0.00 | 42 | 1009.0 |
| 20260503223558 | 47 | 360 | 7.0 | 19.0 | 0.00 | 0.00 | 0.00 | 43 | 1009.0 |
| 20260503223056 | 47 | 232 | 6.0 | 15.0 | 0.00 | 0.00 | 0.00 | 42 | 1008.9 |
| 20260503222557 | 47 | 321 | 7.0 | 15.0 | 0.00 | 0.00 | 0.00 | 42 | 1008.9 |
| 20260503222057 | 48 | 28 | 6.0 | 15.0 | 0.00 | 0.00 | 0.00 | 39 | 1008.9 |
| 20260503221557 | 48 | 262 | 7.0 | 15.0 | 0.00 | 0.00 | 0.00 | 38 | 1008.8 |
| 20260503221101 | 47 | 333 | 6.0 | 19.0 | 0.00 | 0.00 | 0.00 | 39 | 1008.8 |
| 20260503220558 | 47 | 230 | 8.0 | 19.0 | 0.00 | 0.00 | 0.00 | 41 | 1008.8 |
| 20260503220059 | 47 | 322 | 7.0 | 17.0 | 0.00 | 0.00 | 0.00 | 40 | 1008.8 |
| 20260503215558 | 48 | 311 | 7.0 | 15.0 | 0.00 | 0.00 | 0.00 | 40 | 1008.9 |
| 20260503215057 | 48 | 265 | 7.0 | 18.0 | 0.00 | 0.00 | 0.00 | 42 | 1008.8 |
| 20260503214555 | 48 | 316 | 8.0 | 18.0 | 0.00 | 0.00 | 0.00 | 40 | 1008.6 |
| 20260503214058 | 48 | 252 | 5.0 | 18.0 | 0.00 | 0.00 | 0.00 | 38 | 1008.8 |
| 20260503213604 | 48 | 294 | 7.0 | 19.0 | 0.00 | 0.00 | 0.00 | 39 | 1008.7 |
| 20260503213059 | 48 | 292 | 7.0 | 19.0 | 0.00 | 0.00 | 0.00 | 39 | 1008.8 |
| 20260503212558 | 47 | 298 | 8.0 | 18.0 | 0.00 | 0.00 | 0.00 | 39 | 1008.8 |
| 20260503212057 | 48 | 304 | 8.0 | 18.0 | 0.00 | 0.00 | 0.00 | 40 | 1008.8 |
| 20260503211556 | 48 | 287 | 7.0 | 18.0 | 0.00 | 0.00 | 0.00 | 36 | 1008.7 |
| 20260503211057 | 48 | 300 | 8.0 | 18.0 | 0.00 | 0.00 | 0.00 | 34 | 1008.7 |
| 20260503210557 | 48 | 306 | 7.0 | 18.0 | 0.00 | 0.00 | 0.00 | 34 | 1008.6 |
| 20260503205558 | 49 | 297 | 6.0 | 13.0 | 0.00 | 0.00 | 0.00 | 34 | 1008.6 |
| 20260503205100 | 49 | 267 | 6.0 | 15.0 | 0.00 | 0.00 | 0.00 | 34 | 1008.6 |
| 20260503204558 | 49 | 116 | 5.0 | 15.0 | 0.00 | 0.00 | 0.00 | 35 | 1008.5 |
| 20260503204100 | 49 | 287 | 7.0 | 16.0 | 0.00 | 0.00 | 0.00 | 34 | 1008.6 |
| 20260503203601 | 49 | 285 | 8.0 | 17.0 | 0.00 | 0.00 | 0.00 | 34 | 1008.6 |
| 20260503203110 | 49 | 301 | 8.0 | 17.0 | 0.00 | 0.00 | 0.00 | 33 | 1008.7 |
| 20260503202558 | 49 | 311 | 5.0 | 18.0 | 0.00 | 0.00 | 0.00 | 34 | 1008.5 |
| 20260503202101 | 49 | 315 | 5.0 | 18.0 | 0.00 | 0.00 | 0.00 | 31 | 1008.4 |
| 20260503201602 | 49 | 360 | 9.0 | 19.0 | 0.00 | 0.00 | 0.00 | 31 | 1008.6 |
| 20260503201100 | 49 | 319 | 7.0 | 19.0 | 0.00 | 0.00 | 0.00 | 32 | 1008.3 |
| 20260503200557 | 49 | 331 | 10.0 | 19.0 | 0.00 | 0.00 | 0.00 | 32 | 1008.5 |
| 20260503200057 | 49 | 318 | 7.0 | 18.0 | 0.00 | 0.00 | 0.00 | 31 | 1008.4 |
| 20260503195558 | 49 | 277 | 7.0 | 19.0 | 0.00 | 0.00 | 0.00 | 31 | 1008.5 |
| 20260503195057 | 49 | 290 | 9.0 | 19.0 | 0.00 | 0.00 | 0.00 | 34 | 1008.6 |
| 20260503194602 | 49 | 325 | 8.0 | 15.0 | 0.00 | 0.00 | 0.00 | 33 | 1008.7 |
| 20260503194057 | 49 | 250 | 5.0 | 15.0 | 0.00 | 0.00 | 0.00 | 34 | 1008.6 |
| 20260503193558 | 48 | 265 | 7.0 | 16.0 | 0.00 | 0.00 | 0.00 | 35 | 1008.8 |
| 20260503193059 | 48 | 308 | 6.0 | 20.0 | 0.00 | 0.00 | 0.00 | 36 | 1008.7 |
| 20260503192557 | 48 | 283 | 6.0 | 20.0 | 0.00 | 0.00 | 0.00 | 35 | 1009.0 |
| 20260503192058 | 48 | 246 | 7.0 | 14.0 | 0.00 | 0.00 | 0.00 | 34 | 1009.0 |
| 20260503191612 | 48 | 344 | 7.0 | 16.0 | 0.00 | 0.00 | 0.00 | 36 | 1009.1 |
| 20260503191100 | 48 | 303 | 8.0 | 16.0 | 0.00 | 0.00 | 0.00 | 36 | 1009.1 |
| 20260503190558 | 48 | 38 | 7.0 | 18.0 | 0.00 | 0.00 | 0.00 | 36 | 1009.2 |
| 20260503190100 | 47 | 241 | 5.0 | 18.0 | 0.00 | 0.00 | 0.00 | 39 | 1009.2 |
| 20260503185557 | 46 | 338 | 6.0 | 18.0 | 0.00 | 0.00 | 0.00 | 42 | 1009.4 |
| 20260503185058 | 47 | 311 | 10.0 | 19.0 | 0.00 | 0.00 | 0.00 | 39 | 1009.4 |
| 20260503184624 | 48 | 257 | 7.0 | 19.0 | 0.00 | 0.00 | 0.00 | 38 | 1009.4 |
| 20260503184057 | 47 | 265 | 5.0 | 16.0 | 0.00 | 0.00 | 0.00 | 40 | 1009.4 |
| 20260503183558 | 46 | 258 | 5.0 | 16.0 | 0.00 | 0.00 | 0.00 | 41 | 1009.4 |
| 20260503183106 | 46 | 297 | 7.0 | 16.0 | 0.00 | 0.00 | 0.00 | 38 | 1009.5 |
| 20260503182558 | 47 | 252 | 5.0 | 19.0 | 0.00 | 0.00 | 0.00 | 39 | 1009.5 |
| 20260503182058 | 47 | 305 | 7.0 | 19.0 | 0.00 | 0.00 | 0.00 | 39 | 1009.7 |
| 20260503181559 | 46 | 316 | 5.0 | 15.0 | 0.00 | 0.00 | 0.00 | 40 | 1009.7 |
| 20260503181058 | 47 | 325 | 6.0 | 13.0 | 0.00 | 0.00 | 0.00 | 38 | 1009.7 |
| 20260503180558 | 46 | 300 | 6.0 | 12.0 | 0.00 | 0.00 | 0.00 | 40 | 1009.9 |
| 20260503180058 | 45 | 268 | 3.0 | 15.0 | 0.00 | 0.00 | 0.00 | 43 | 1009.8 |
| 20260503175558 | 44 | 342 | 5.0 | 15.0 | 0.00 | 0.00 | 0.00 | 42 | 1009.8 |
| 20260503175057 | 44 | 250 | 7.0 | 15.0 | 0.00 | 0.00 | 0.00 | 45 | 1009.9 |
| 20260503174558 | 44 | 299 | 5.0 | 15.0 | 0.00 | 0.00 | 0.00 | 43 | 1009.9 |
| 20260503174057 | 44 | 23 | 5.0 | 16.0 | 0.00 | 0.00 | 0.00 | 41 | 1009.9 |
| 20260503173558 | 43 | 12 | 5.0 | 16.0 | 0.00 | 0.00 | 0.00 | 45 | 1010.0 |
| 20260503173058 | 43 | 287 | 5.0 | 15.0 | 0.00 | 0.00 | 0.00 | 46 | 1010.0 |
| 20260503172558 | 43 | 267 | 5.0 | 15.0 | 0.00 | 0.00 | 0.00 | 46 | 1009.9 |
| 20260503172058 | 43 | 303 | 4.0 | 14.0 | 0.00 | 0.00 | 0.00 | 45 | 1009.9 |
| 20260503171611 | 43 | 302 | 4.0 | 13.0 | 0.00 | 0.00 | 0.00 | 47 | 1010.0 |
| 20260503171101 | 43 | 273 | 6.0 | 13.0 | 0.00 | 0.00 | 0.00 | 46 | 1009.8 |
| 20260503170558 | 43 | 0 | 4.0 | 11.0 | 0.00 | 0.00 | 0.00 | 47 | 1009.8 |
| 20260503170106 | 42 | 271 | 4.0 | 13.0 | 0.00 | 0.00 | 0.00 | 47 | 1010.0 |
| 20260503150559 | 41 | 346 | 4.0 | 13.0 | 0.00 | 0.00 | 0.00 | 57 | 1010.8 |
| 20260503131101 | 38 | 285 | 3.0 | 8.0 | 0.00 | 0.00 | 0.00 | 65 | 1011.2 |
| 20260503130601 | 38 | 328 | 3.0 | 11.0 | 0.00 | 0.00 | 0.00 | 66 | 1011.2 |
| 20260503110559 | 35 | 325 | 3.0 | 10.0 | 0.00 | 0.00 | 0.00 | 77 | 1010.9 |
| 20260503090117 | 34 | 314 | 3.0 | 12.0 | 0.00 | 0.00 | 0.00 | 80 | 1010.6 |
| 20260503081601 | 34 | 348 | 2.0 | 7.0 | 0.00 | 0.00 | 0.00 | 81 | 1010.8 |
| 20260503081059 | 34 | 240 | 2.0 | 4.0 | 0.00 | 0.00 | 0.00 | 81 | 1010.9 |
| 20260503080559 | 34 | 217 | 2.0 | 4.0 | 0.00 | 0.00 | 0.00 | 81 | 1011.1 |
| 20260503080109 | 34 | 241 | 1.0 | 3.0 | 0.00 | 0.00 | 0.00 | 81 | 1011.1 |
| 20260503072559 | 34 | 259 | 0.0 | 4.0 | 0.00 | 0.00 | 0.00 | 81 | 1010.8 |
| 20260503072059 | 34 | 0 | 2.0 | 4.0 | 0.00 | 0.00 | 0.00 | 81 | 1010.9 |
| 20260503071611 | 34 | 274 | 1.0 | 3.0 | 0.00 | 0.00 | 0.00 | 82 | 1010.9 |
| 20260503071058 | 34 | 275 | 1.0 | 5.0 | 0.00 | 0.00 | 0.00 | 82 | 1010.9 |
| 20260503070559 | 34 | 284 | 0.0 | 6.0 | 0.00 | 0.00 | 0.00 | 82 | 1010.9 |